Preview of NWS' New Version of Forecast
This preview is not operational and should not be used for support decisions.

Regional Weather Roundup (RWR)

Issued by Philadelphia/Mt Holly (PHI)

                            
000
ASUS41 KPHI 241312
RWRPHI

REGIONAL WEATHER ROUNDUP
NATIONAL WEATHER SERVICE MOUNT HOLLY NJ
900 AM EDT FRI MAY 24 2019

NOTE:  "FAIR" INDICATES FEW OR NO CLOUDS BELOW 12,000 FEET WITH NO
SIGNIFICANT WEATHER AND/OR OBSTRUCTIONS TO VISIBILITY.

 * = STATION DOES NOT REPORT PRECIPITATION (E.G. RAIN, SNOW, ETC.) 
        OR FOG.

NJZ015>026-241400-
SOUTHERN NEW JERSEY
  
CITY           SKY/WX    TMP DP  RH WIND       PRES   REMARKS
POMONA         FAIR      74  53  48 NW23G31   29.92R                  
WILDWOOD*      FAIR      75  57  53 NW13G24   29.96R                  
MILLVILLE      FAIR      73  52  47 NW21G31   29.95R                  
WRIGHTSTOWN    FAIR      71  49  46 NW18G25   29.88S                  
MOUNT HOLLY    FAIR      71  51  49 NW10G24   29.92R                  
TRENTON        FAIR      69  48  47 NW13G28   29.91R                  

$$
NJZ001>014-241400-
NORTHERN NEW JERSEY
  
CITY           SKY/WX    TMP DP  RH WIND       PRES   REMARKS
SUSSEX         PTSUNNY   65  51  60 VRB3      29.92R                  
ANDOVER*         N/A     66  50  56 NW8       29.92S                  
MORRISTOWN     MOSUNNY   68  52  56 NW16G28   29.91R                  
NEWARK         FAIR      71  49  45 NW18G29   29.88R                  
TETERBORO      FAIR      69  49  48 NW21G33   29.87R                  
CALDWELL       FAIR      69  49  48 NW15G28   29.89S                  
SOMERVILLE     FAIR      69  48  47 NW17G29   29.90R                  
ALLAIRE*       FAIR      71  50  47 W16G23    29.89R                  
TOMS RIVER*    FAIR      72  52  49 NW17      29.90R                  

$$
PAZ043-044-047-054-055-060>062-066>071-241400-
EASTERN PENNSYLVANIA
  
CITY           SKY/WX    TMP DP  RH WIND       PRES   REMARKS
PHILADELPHIA   FAIR      71  49  45 NW21G31   29.96R                  
NORTH PHILA    FAIR      72  47  40 NW15G28   29.94R                  
BLUE BELL*     FAIR      69  47  46 W13G22    29.95S                  
DOYLESTOWN     FAIR      70  48  45 W9G25     29.93S                  
QUAKERTOWN*    SUNNY     68  48  49 W9G17     29.96                   
PERKASIE*      FAIR      66  48  52 NW17G24   29.95S                  
POTTSTOWN      FAIR      67  47  48 NW10G23   29.98R                  
LANCASTER      FAIR      70  51  51 NW15G23   29.99S                  
COATESVILLE    FAIR      68  48  49 NW22G31   30.00S                  
WEST CHESTER   FAIR      68  48  49 NW9G22    29.97S                  
READING        FAIR      69  50  50 NW21      29.97R                  
ALLENTOWN      FAIR      69  47  45 NW15G28   29.95R                  
QN CITY/ALNTWN FAIR      68  46  45 NW9G21    29.97R                  
MOUNT POCONO   FAIR      58  47  66 NW20G32   29.93R                  
HAZLETON         N/A     61  46  59 W9        30.02                   
LEHIGHTON      FAIR      64  46  52 NW13G22   29.97S                  
WILKES BARRE   FAIR      63  49  60 NW12G20   29.97S                  

$$
DEZALL-MDZ008-012-015-019-020-241400-
DELAWARE AND EASTERN MARYLAND
  
CITY           SKY/WX    TMP DP  RH WIND       PRES   REMARKS
WILMINGTON     FAIR      72  53  51 NW13G24   29.98R                  
DOVER          FAIR      73  52  47 W13G25    29.96R                  
CHESWOLD         N/A     73  54  49 NW10G18   29.98R                  
GEORGETOWN     FAIR      75  59  57 NW9G20    29.98R                  
EASTON         SUNNY     75  54  46 NW17G25   30.03R                  
STEVENSVILLE   FAIR      73  55  53 NW10G16   30.01S                  
ABERDEEN       MOSUNNY   72  61  68 W9        30.00                   
PATUXENT       FAIR      77  60  55 NW12      30.00R                  
OCEAN CITY     FAIR      76  63  64 NW14G24   29.96S                  
WALLOPS ISLAND FAIR      79  68  69 N16G25    29.97R                  
CAMBRIDGE      SUNNY     75  59  57 MISG      29.99R                  
SALISBURY      FAIR      76  57  51 NW18G30   29.98R                  

$$
PAZ001-021-NYZ056-072-MDZ011-DCZ001-241400-
OTHER NEARBY LOCATIONS
  
CITY           SKY/WX    TMP DP  RH WIND       PRES   REMARKS
HARRISBURG     FAIR      69  49  48 NW15G22   30.00R                  
STATE COLLEGE  SUNNY     61  48  63 W10       30.07S                  
WILLIAMSPORT   FAIR      66  48  52 W12       30.00R                  
BINGHAMTON     CLOUDY    54  47  77 NW14G24   29.97R                  
NEW YORK CITY  FAIR      67  48  50 NW9G24    29.90R                  
BALTIMORE      FAIR      73  52  47 NW13G25   30.01R                  
WASHINGTON DC  FAIR      74  52  46 N16       30.04R                  

$$